BEIDOU-3 M12 (C26)

Last updated on Fri Apr 12 2024 01:03:10 GMT+0100 (British Summer Time)

1 43602U 18067A 24102.06482864 .00000012 00000+0 00000+0 0 9995 2 43602 54.2302 208.0851 0007104 26.5409 333.5042 1.86231651 38278
UTC large
Height (km)
Speed (km/s)
/
Latitude / Longitude
Inclination (degrees)
Orbital Period (minutes)
Azimuth
Elevation
Range (km)
Doppler Factor

Next 0 passes for location: London (51.5072 / 0.1276)

Sorry there are no passes over London.